FENGYUN 1C DEB, 37589

Orbit data source: Space-Track

FENGYUN 1C DEB, 37589 is space debris in SSO originally from a launch on Mon, 10 May 1999 UTC launched from the Taiyaun Space Center, China (TSC). Fengyun 1C debris stems from the Chinese weather satellite Fengyun-1C, which was intentionally destroyed by a Chinese anti-satellite missile in 2007. This event dramatically increased the amount of space debris, with thousands of trackable fragments posing hazards to satellites and human spaceflight. The Fengyun 1C debris cloud has become a focal point in discussions about space sustainability and the need for international regulations to prevent the creation of new debris.

Loading next visibility...
Identifier
37589, 1999-025EKH
Orbit
SSO
Country
Flag of CNCN / PRC
Related business
Manufacturer
Unknown
Mission
Spacecraft
Bus & Motor
Unknown
Mass
Unknown
Launch date (UTC)
1999-05-10 (27 years ago)
Launch vehicle
Unknown
Launch site
Taiyaun Space Center, China (TSC)
Object type
Payload
Rocket body
Debris
Shape & HBR
Unknown shape, 0.1 m
Radar Cross Section
Small (<0.1 m²)

Expand to show TLE details & history
Last TLE update: 2 days ago

TLE from 2 days ago
0 FENGYUN 1C DEB
1 37589U 99025EKH 26163.50046460  .00004051  00000-0  21784-2 0  9994
2 37589  99.0751  72.4027 0117706 111.7062 249.6688 14.09941968851443
Epoch: 2026-06-12T12:00Z
TLE epoch observation values (Epoch: 2026-06-12T12:00:40.141Z)
Latitude
0.00003°
Longitude
-8.59357°
Altitude
892.942 km
Speed
7.39 km/s
True Right ascension
04h 49m 36s
True Declination
0° 00' 00"
Sunlit
Object was in daylight at epoch
Visualization orbit readout
Latitude
Unknown
Longitude
Unknown
Altitude
Unknown
Speed
Unknown
Apparent Right ascension
Unknown
Apparent Declination
Unknown
Sunlit
N/A
Visualization observer readout
Local Sidereal Time
15:38:30
Azimuth
Unknown
Elevation
Unknown
Doppler factor
Unknown
Orbital elements
Apogee altitude
941.919 km
Perigee altitude
771.6 km
Semi-major axis
7,234.897 km
Eccentricity
0.01177
Inclination
99.0751°
RAAN
72.4027°
Arg. of periapsis
111.7062°
True anomaly
248.41055°
Mean anomaly
249.6688°
Eccentric anomaly
249.03902°
Mean motion
3.52691 °/min
Orbital period
102.07 mins
BSTAR
0.0021784
Loading maneuver chart data...
Computing Atmospheric mass density...

Documentation

Showing up to 5 results
|